Flag for Canada Weather past 2 weeks in Hamilton, Ontario, Canada

Now
10 °F

Low clouds.


Feels Like: 1 °F
Forecast: 4 / 39 °F
Wind: 6 mph from South

Location: Hamilton Airport

Current Time: Mar 3, 2015 at 6:55:43 AM

Latest Report: Mar 3, 2015 at 6:00 AM


Visibility: 10 mi

Pressure: 30.34 "Hg

Humidity: 85%

Dew point: 7 °F

Location of HamiltonLocation

Historic Weather in Hamilton — Graph

°F

Hamilton temperature yesterday

Maximum temperature yesterday: 25 °F (at 11:00 AM)
Minimum temperature yesterday: 9 °F (at 11:00 PM)
Average temperature yesterday: 19 °F

Past Weeks' High & Low Weather Summary

 TemperatureHumidityPressure
High25 °F (Mar 2, 11:00 AM)93% (Feb 21, 7:00 PM)30.81 "Hg (Feb 21, 7:00 PM)
Low-18 °F (Feb 16, 6:00 AM)30% (Feb 17, 1:00 PM)29.62 "Hg (Feb 25, 3:00 AM)
Average6 °F69%30.21 "Hg
* Reported Feb 16 5:00 AM — Mar 3 5:51 AM, Hamilton, Weather by CustomWeather, © 2015

Note: Actual official high and low records may vary slightly from our data, if they occured in-between our weather recording intervals... More about our weather records

Advertising

Hamilton weather history for previous 24 hours

 ConditionsComfort  
Time TempWeatherWind HumidityBarometerVisibility
5:51 AM
Tue, Mar 3
10 °FLow clouds.7 mph85%30.34 "Hg8 mi
5:00 AM9 °FMostly cloudy.6 mph85%30.37 "Hg7 mi
4:00 AM9 °FPassing clouds.2 mph85%30.36 "Hg15 mi
3:00 AM9 °FPassing clouds.6 mph85%30.38 "Hg15 mi
2:00 AM9 °FClear.3 mph85%30.40 "Hg15 mi
1:00 AM9 °FClear.3 mph78%30.39 "Hg15 mi
12:00 AM9 °FClear.5 mph78%30.43 "Hg15 mi
11:00 PM
Mon, Mar 2
9 °FClear.5 mph78%30.44 "Hg15 mi
10:00 PM12 °FClear.5 mph67%30.45 "Hg15 mi
9:00 PM14 °FPassing clouds.5 mph67%30.45 "Hg15 mi
8:00 PM14 °FPassing clouds.6 mph67%30.47 "Hg15 mi
7:00 PM18 °FPassing clouds.5 mph58%30.46 "Hg15 mi
6:00 PM19 °FPassing clouds.9 mph58%30.45 "Hg15 mi
5:00 PM23 °FScattered clouds.13 mph54%30.42 "Hg15 mi
4:00 PM23 °FPartly sunny.14 mph54%30.42 "Hg15 mi
3:00 PM25 °FLight snow. Partly sunny.17 mph54%30.40 "Hg15 mi
2:00 PM23 °FLight snow. Partly sunny.16 mph63%30.38 "Hg12 mi
1:00 PM25 °FLight snow. Partly sunny.14 mph59%30.38 "Hg8 mi
12:00 PM25 °FPartly sunny.17 mph59%30.36 "Hg15 mi
11:00 AM25 °FPartly sunny.16 mph59%30.34 "Hg15 mi
10:00 AM23 °FPartly sunny.13 mph63%30.32 "Hg15 mi
9:00 AM23 °FPassing clouds.15 mph63%30.29 "Hg15 mi
8:46 AM21 °FScattered clouds.16 mph74%30.29 "Hg10 mi
8:00 AM18 °FLight snow. Broken clouds.12 mph86%30.27 "Hg10 mi
7:00 AM16 °FLight snow. More clouds than sun.13 mph86%30.23 "Hg8 mi
6:00 AM18 °FLight snow. Passing clouds.15 mph79%30.20 "Hg12 mi
Weather by CustomWeather, © 2015

See weather overviewHow to use our weather pages